• en France
  • Liste des pays
  • À 7 jours
  • Température de l'eau
  • Carte satellitaire
  • Carte météo
  • Widgets météo
  • user-avatar
    Se connecter

    Météo par heure à Borec

    Ce jour, 25 Septembre, Mardi

    Heure Température Précipitation Vent Pression Humidité
    00:00 +10°C° 0.8 mm 8 m/s 743 mmHg 78%
    01:00 +10°C° 0.3 mm 8 m/s 742 mmHg 80%
    02:00 +10°C° 0.3 mm 7 m/s 742 mmHg 82%
    03:00 +10°C° 0 mm 6 m/s 741 mmHg 85%
    04:00 +10°C° 0.6 mm 6 m/s 741 mmHg 86%
    05:00 +10°C° 0.6 mm 6 m/s 741 mmHg 86%
    06:00 +10°C° 0.6 mm 6 m/s 741 mmHg 87%
    07:00 +10°C° 0.2 mm 6 m/s 741 mmHg 84%
    08:00 +10°C° 0.2 mm 6 m/s 741 mmHg 81%
    09:00 +10°C° 0 mm 6 m/s 740 mmHg 77%
    10:00 +10°C° 0 mm 6 m/s 741 mmHg 74%
    11:00 +10°C° 0 mm 6 m/s 741 mmHg 71%
    12:00 +10°C° 0 mm 6 m/s 742 mmHg 67%
    13:00 +11°C° 0 mm 7 m/s 742 mmHg 66%
    14:00 +11°C° 0 mm 7 m/s 743 mmHg 65%
    15:00 +11°C° 0 mm 7 m/s 744 mmHg 64%
    16:00 +10°C° 0 mm 6 m/s 744 mmHg 66%
    17:00 +9°C° 0 mm 6 m/s 745 mmHg 68%
    18:00 +9°C° 0 mm 5 m/s 745 mmHg 70%
    19:00 +8°C° 0 mm 5 m/s 746 mmHg 72%
    20:00 +8°C° 0 mm 5 m/s 746 mmHg 74%
    21:00 +7°C° 0 mm 5 m/s 747 mmHg 76%
    22:00 +7°C° 0 mm 5 m/s 748 mmHg 76%
    23:00 +7°C° 0 mm 5 m/s 748 mmHg 77%

    Demain, 26 Septembre, Mercredi

    Heure Température Précipitation Vent Pression Humidité
    00:00 +6°C° 0 mm 5 m/s 749 mmHg 77%
    01:00 +6°C° 0 mm 5 m/s 749 mmHg 78%
    02:00 +6°C° 0 mm 5 m/s 750 mmHg 79%
    03:00 +5°C° 0 mm 4 m/s 750 mmHg 80%
    04:00 +5°C° 0 mm 4 m/s 751 mmHg 82%
    05:00 +4°C° 0 mm 4 m/s 751 mmHg 85%
    06:00 +4°C° 0 mm 4 m/s 752 mmHg 87%
    07:00 +5°C° 0 mm 4 m/s 753 mmHg 82%
    08:00 +6°C° 0 mm 4 m/s 753 mmHg 78%
    09:00 +6°C° 0 mm 5 m/s 754 mmHg 74%
    10:00 +7°C° 0 mm 5 m/s 754 mmHg 68%
    11:00 +8°C° 0 mm 4 m/s 755 mmHg 63%
    12:00 +10°C° 0 mm 4 m/s 755 mmHg 58%
    13:00 +10°C° 0 mm 4 m/s 755 mmHg 56%
    14:00 +10°C° 0 mm 4 m/s 755 mmHg 55%
    15:00 +10°C° 0 mm 4 m/s 755 mmHg 53%
    16:00 +10°C° 0 mm 4 m/s 756 mmHg 55%
    17:00 +9°C° 0 mm 3 m/s 756 mmHg 56%
    18:00 +9°C° 0 mm 2 m/s 756 mmHg 58%
    19:00 +8°C° 0 mm 3 m/s 756 mmHg 61%
    20:00 +7°C° 0 mm 3 m/s 756 mmHg 64%
    21:00 +5°C° 0 mm 3 m/s 756 mmHg 67%
    22:00 +5°C° 0 mm 3 m/s 755 mmHg 67%
    23:00 +5°C° 0 mm 4 m/s 755 mmHg 67%

    Après-demain, 27 Septembre, Jeudi

    Heure Température Précipitation Vent Pression Humidité
    00:00 +4°C° 0 mm 4 m/s 754 mmHg 67%
    01:00 +5°C° 0 mm 5 m/s 754 mmHg 66%
    02:00 +5°C° 0 mm 5 m/s 753 mmHg 66%
    03:00 +4°C° 0 mm 6 m/s 752 mmHg 66%
    04:00 +4°C° 0 mm 7 m/s 751 mmHg 65%
    05:00 +5°C° 0 mm 7 m/s 750 mmHg 64%
    06:00 +5°C° 0 mm 8 m/s 749 mmHg 64%
    07:00 +5°C° 1 mm 8 m/s 748 mmHg 67%
    08:00 +5°C° 1 mm 9 m/s 748 mmHg 71%
    09:00 +3°C° 1 mm 10 m/s 747 mmHg 74%
    10:00 +5°C° 1.5 mm 10 m/s 746 mmHg 77%
    11:00 +5°C° 1.5 mm 10 m/s 746 mmHg 79%
    12:00 +5°C° 1.5 mm 10 m/s 745 mmHg 82%
    13:00 +5°C° 0.8 mm 9 m/s 745 mmHg 83%
    14:00 +6°C° 0.8 mm 9 m/s 744 mmHg 84%
    15:00 +6°C° 0.8 mm 8 m/s 744 mmHg 85%
    16:00 +7°C° 0.4 mm 8 m/s 744 mmHg 85%
    17:00 +8°C° 0.4 mm 7 m/s 744 mmHg 85%
    18:00 +8°C° 0.4 mm 7 m/s 744 mmHg 85%
    19:00 +8°C° 0.2 mm 6 m/s 744 mmHg 84%
    20:00 +7°C° 0.2 mm 5 m/s 745 mmHg 83%
    21:00 +7°C° 0.2 mm 5 m/s 745 mmHg 82%
    22:00 +6°C° 0 mm 5 m/s 746 mmHg 83%
    23:00 +6°C° 0 mm 4 m/s 746 mmHg 83%

    28 Septembre, Vendredi

    Heure Température Précipitation Vent Pression Humidité
    00:00 +5°C° 0 mm 4 m/s 746 mmHg 84%
    01:00 +5°C° 0 mm 4 m/s 747 mmHg 85%
    02:00 +5°C° 0 mm 5 m/s 747 mmHg 86%
    03:00 +5°C° 0 mm 5 m/s 747 mmHg 87%
    04:00 +5°C° 0 mm 5 m/s 748 mmHg 88%
    05:00 +5°C° 0 mm 4 m/s 748 mmHg 89%
    06:00 +4°C° 0 mm 4 m/s 748 mmHg 91%
    07:00 +5°C° 0 mm 5 m/s 748 mmHg 86%
    08:00 +7°C° 0 mm 5 m/s 748 mmHg 81%
    09:00 +8°C° 0 mm 5 m/s 748 mmHg 75%
    10:00 +9°C° 0 mm 6 m/s 748 mmHg 68%
    11:00 +11°C° 0 mm 7 m/s 747 mmHg 61%
    12:00 +12°C° 0 mm 7 m/s 747 mmHg 53%
    13:00 +13°C° 0 mm 8 m/s 746 mmHg 54%
    14:00 +13°C° 0 mm 9 m/s 745 mmHg 54%
    15:00 +15°C° 0 mm 9 m/s 744 mmHg 55%
    16:00 +15°C° 0.1 mm 9 m/s 744 mmHg 60%
    17:00 +13°C° 0.1 mm 9 m/s 743 mmHg 65%
    18:00 +13°C° 0.1 mm 8 m/s 743 mmHg 70%
    19:00 +13°C° 0.2 mm 9 m/s 742 mmHg 73%
    20:00 +15°C° 0.2 mm 9 m/s 742 mmHg 75%
    21:00 +15°C° 0.2 mm 9 m/s 742 mmHg 77%
    22:00 +12°C° 0.5 mm 9 m/s 743 mmHg 77%
    23:00 +11°C° 0.5 mm 8 m/s 743 mmHg 78%

    29 Septembre, Samedi

    Heure Température Précipitation Vent Pression Humidité
    00:00 +10°C° 0.5 mm 7 m/s 744 mmHg 78%
    01:00 +8°C° 0 mm 6 m/s 746 mmHg 79%
    02:00 +6°C° 0 mm 5 m/s 747 mmHg 80%
    03:00 +5°C° 0 mm 4 m/s 748 mmHg 81%
    04:00 +4°C° 0 mm 4 m/s 749 mmHg 82%
    05:00 +3°C° 0 mm 3 m/s 750 mmHg 83%
    06:00 +2°C° 0 mm 3 m/s 750 mmHg 84%
    07:00 +3°C° 0 mm 3 m/s 751 mmHg 78%
    08:00 +4°C° 0 mm 3 m/s 752 mmHg 71%
    09:00 +5°C° 0 mm 3 m/s 752 mmHg 65%
    10:00 +7°C° 0 mm 3 m/s 753 mmHg 59%
    11:00 +9°C° 0 mm 2 m/s 753 mmHg 52%
    12:00 +10°C° 0 mm 2 m/s 753 mmHg 46%
    13:00 +10°C° 0 mm 2 m/s 753 mmHg 45%
    14:00 +10°C° 0 mm 2 m/s 754 mmHg 45%
    15:00 +10°C° 0 mm 2 m/s 754 mmHg 44%
    16:00 +10°C° 0 mm 2 m/s 754 mmHg 48%
    17:00 +9°C° 0 mm 2 m/s 754 mmHg 52%
    18:00 +9°C° 0 mm 1 m/s 754 mmHg 56%
    19:00 +9°C° 0 mm 1 m/s 755 mmHg 58%
    20:00 +7°C° 0 mm 2 m/s 755 mmHg 60%
    21:00 +7°C° 0 mm 2 m/s 756 mmHg 62%
    22:00 +6°C° 0 mm 2 m/s 756 mmHg 63%
    23:00 +5°C° 0 mm 2 m/s 757 mmHg 64%

    30 Septembre, Dimanche

    Heure Température Précipitation Vent Pression Humidité
    00:00 +5°C° 0 mm 2 m/s 757 mmHg 65%
    01:00 +4°C° 0 mm 2 m/s 757 mmHg 65%
    02:00 +3°C° 0 mm 2 m/s 758 mmHg 66%
    03:00 +3°C° 0 mm 2 m/s 758 mmHg 66%
    04:00 +2°C° 0 mm 2 m/s 758 mmHg 67%
    05:00 +2°C° 0 mm 2 m/s 759 mmHg 68%
    06:00 +3°C° 0 mm 1 m/s 759 mmHg 68%
    07:00 +4°C° 0 mm 1 m/s 759 mmHg 64%
    08:00 +5°C° 0 mm 1 m/s 760 mmHg 59%
    09:00 +6°C° 0 mm 1 m/s 760 mmHg 54%
    10:00 +6°C° 0 mm 2 m/s 760 mmHg 50%
    11:00 +8°C° 0 mm 2 m/s 760 mmHg 45%
    12:00 +9°C° 0 mm 2 m/s 760 mmHg 40%
    13:00 +9°C° 0 mm 2 m/s 760 mmHg 39%
    14:00 +9°C° 0 mm 3 m/s 760 mmHg 39%
    15:00 +10°C° 0 mm 3 m/s 759 mmHg 38%
    16:00 +8°C° 0 mm 2 m/s 759 mmHg 43%
    17:00 +7°C° 0 mm 2 m/s 759 mmHg 48%
    18:00 +7°C° 0 mm 1 m/s 759 mmHg 53%
    19:00 +7°C° 0 mm 1 m/s 759 mmHg 55%
    20:00 +5°C° 0 mm 2 m/s 760 mmHg 57%
    21:00 +5°C° 0 mm 2 m/s 760 mmHg 60%
    22:00 +5°C° 0 mm 2 m/s 760 mmHg 62%
    23:00 +4°C° 0 mm 2 m/s 760 mmHg 64%
    Voir plus